When you browse on this site, cookies collect data to enhance your experience and personalize the content and advertising you see.
Visit our Privacy Policy to learn more. By continuing to use the site, you agree to this use of cookies and data.
  • In Hungary
  • List of Countries
  • For 7 days
  • Water Temperature
  • Weather Map
  • News
  • Weather Widgets
  • user-avatar
    Login

    Hourly Weather Letnik

    Today, 18 October, Friday

    Time Temperature Precipitation Wind Pressure Humidity
    00:00 +14°C° 0 mm 5 mps 760 mmHg 72%
    01:00 +14°C° 0 mm 4 mps 760 mmHg 76%
    02:00 +13°C° 0 mm 4 mps 760 mmHg 79%
    03:00 +12°C° 0 mm 3 mps 760 mmHg 90%
    04:00 +12°C° 0 mm 3 mps 760 mmHg 91%
    05:00 +12°C° 0 mm 3 mps 760 mmHg 92%
    06:00 +11°C° 0 mm 3 mps 760 mmHg 94%
    07:00 +14°C° 0 mm 2 mps 760 mmHg 88%
    08:00 +15°C° 0 mm 2 mps 760 mmHg 82%
    09:00 +16°C° 0 mm 2 mps 760 mmHg 76%
    10:00 +18°C° 0 mm 2 mps 759 mmHg 68%
    11:00 +20°C° 0 mm 2 mps 759 mmHg 60%
    12:00 +23°C° 0 mm 1 mps 759 mmHg 51%
    13:00 +24°C° 0 mm 1 mps 759 mmHg 48%
    14:00 +24°C° 0 mm 1 mps 759 mmHg 45%
    15:00 +25°C° 0 mm 1 mps 758 mmHg 41%
    16:00 +24°C° 0 mm 1 mps 758 mmHg 46%
    17:00 +22°C° 0 mm 1 mps 758 mmHg 50%
    18:00 +21°C° 0 mm 1 mps 758 mmHg 55%
    19:00 +20°C° 0 mm 1 mps 758 mmHg 58%
    20:00 +20°C° 0 mm 1 mps 758 mmHg 61%
    21:00 +18°C° 0 mm 2 mps 759 mmHg 64%
    22:00 +18°C° 0 mm 1 mps 759 mmHg 66%
    23:00 +18°C° 0 mm 1 mps 759 mmHg 68%

    Tomorrow, 19 October, Saturday

    Time Temperature Precipitation Wind Pressure Humidity
    00:00 +18°C° 0 mm 1 mps 759 mmHg 70%
    01:00 +16°C° 0 mm 1 mps 759 mmHg 71%
    02:00 +16°C° 0 mm 1 mps 759 mmHg 73%
    03:00 +15°C° 0 mm 1 mps 759 mmHg 74%
    04:00 +15°C° 0 mm 1 mps 759 mmHg 75%
    05:00 +15°C° 0 mm 1 mps 759 mmHg 77%
    06:00 +14°C° 0 mm 1 mps 760 mmHg 78%
    07:00 +15°C° 0 mm 1 mps 760 mmHg 73%
    08:00 +16°C° 0 mm 1 mps 760 mmHg 68%
    09:00 +19°C° 0 mm 1 mps 760 mmHg 63%
    10:00 +20°C° 0 mm 1 mps 760 mmHg 57%
    11:00 +22°C° 0 mm 1 mps 760 mmHg 52%
    12:00 +24°C° 0 mm 1 mps 760 mmHg 46%
    13:00 +24°C° 0 mm 1 mps 760 mmHg 43%
    14:00 +25°C° 0 mm 2 mps 760 mmHg 41%
    15:00 +25°C° 0 mm 2 mps 760 mmHg 38%
    16:00 +24°C° 0 mm 2 mps 760 mmHg 43%
    17:00 +21°C° 0 mm 2 mps 760 mmHg 48%
    18:00 +19°C° 0 mm 3 mps 760 mmHg 52%
    19:00 +19°C° 0 mm 3 mps 761 mmHg 54%
    20:00 +18°C° 0 mm 3 mps 761 mmHg 55%
    21:00 +17°C° 0 mm 3 mps 761 mmHg 57%
    22:00 +17°C° 0 mm 3 mps 761 mmHg 58%
    23:00 +16°C° 0 mm 3 mps 761 mmHg 59%

    Day after tomorrow, 20 October, Sunday

    Time Temperature Precipitation Wind Pressure Humidity
    00:00 +16°C° 0 mm 3 mps 761 mmHg 61%
    01:00 +14°C° 0 mm 3 mps 761 mmHg 62%
    02:00 +14°C° 0 mm 3 mps 761 mmHg 64%
    03:00 +14°C° 0 mm 3 mps 761 mmHg 66%
    04:00 +13°C° 0 mm 3 mps 762 mmHg 68%
    05:00 +13°C° 0 mm 3 mps 762 mmHg 70%
    06:00 +13°C° 0 mm 3 mps 762 mmHg 72%
    07:00 +14°C° 0 mm 4 mps 762 mmHg 68%
    08:00 +17°C° 0 mm 4 mps 763 mmHg 65%
    09:00 +18°C° 0 mm 4 mps 763 mmHg 61%
    10:00 +19°C° 0 mm 5 mps 763 mmHg 55%
    11:00 +21°C° 0 mm 5 mps 763 mmHg 50%
    12:00 +23°C° 0 mm 5 mps 763 mmHg 45%
    13:00 +23°C° 0 mm 5 mps 762 mmHg 43%
    14:00 +23°C° 0 mm 5 mps 762 mmHg 42%
    15:00 +23°C° 0 mm 5 mps 762 mmHg 41%
    16:00 +22°C° 0 mm 5 mps 762 mmHg 45%
    17:00 +20°C° 0 mm 4 mps 762 mmHg 48%
    18:00 +19°C° 0 mm 4 mps 762 mmHg 52%
    19:00 +18°C° 0 mm 4 mps 763 mmHg 53%
    20:00 +18°C° 0 mm 4 mps 763 mmHg 54%
    21:00 +17°C° 0 mm 4 mps 763 mmHg 56%
    22:00 +17°C° 0 mm 4 mps 763 mmHg 57%
    23:00 +15°C° 0 mm 4 mps 763 mmHg 58%

    21 October, Monday

    Time Temperature Precipitation Wind Pressure Humidity
    00:00 +15°C° 0 mm 4 mps 763 mmHg 59%
    01:00 +14°C° 0 mm 4 mps 763 mmHg 60%
    02:00 +14°C° 0 mm 4 mps 763 mmHg 60%
    03:00 +13°C° 0 mm 4 mps 763 mmHg 61%
    04:00 +13°C° 0 mm 4 mps 763 mmHg 63%
    05:00 +13°C° 0 mm 4 mps 763 mmHg 65%
    06:00 +12°C° 0 mm 4 mps 763 mmHg 67%
    07:00 +13°C° 0 mm 5 mps 764 mmHg 62%
    08:00 +14°C° 0 mm 5 mps 764 mmHg 58%
    09:00 +15°C° 0 mm 6 mps 764 mmHg 53%
    10:00 +17°C° 0 mm 6 mps 764 mmHg 49%
    11:00 +19°C° 0 mm 6 mps 764 mmHg 44%
    12:00 +21°C° 0 mm 6 mps 764 mmHg 40%
    13:00 +21°C° 0 mm 6 mps 763 mmHg 40%
    14:00 +21°C° 0 mm 6 mps 763 mmHg 40%
    15:00 +22°C° 0 mm 6 mps 763 mmHg 40%
    16:00 +20°C° 0 mm 5 mps 763 mmHg 46%
    17:00 +19°C° 0 mm 5 mps 763 mmHg 51%
    18:00 +17°C° 0 mm 4 mps 763 mmHg 56%
    19:00 +17°C° 0 mm 4 mps 763 mmHg 58%
    20:00 +15°C° 0 mm 4 mps 763 mmHg 60%
    21:00 +15°C° 0 mm 5 mps 763 mmHg 61%
    22:00 +14°C° 0 mm 4 mps 763 mmHg 63%
    23:00 +14°C° 0 mm 4 mps 763 mmHg 64%

    22 October, Tuesday

    Time Temperature Precipitation Wind Pressure Humidity
    00:00 +13°C° 0 mm 4 mps 763 mmHg 65%
    01:00 +13°C° 0 mm 4 mps 763 mmHg 67%
    02:00 +12°C° 0 mm 4 mps 763 mmHg 69%
    03:00 +12°C° 0 mm 4 mps 763 mmHg 71%
    04:00 +11°C° 0 mm 4 mps 763 mmHg 73%
    05:00 +11°C° 0 mm 4 mps 763 mmHg 75%
    06:00 +11°C° 0 mm 3 mps 763 mmHg 77%
    07:00 +12°C° 0 mm 4 mps 763 mmHg 71%
    08:00 +13°C° 0 mm 4 mps 763 mmHg 66%
    09:00 +14°C° 0 mm 5 mps 763 mmHg 61%
    10:00 +16°C° 0 mm 5 mps 763 mmHg 55%
    11:00 +17°C° 0 mm 5 mps 763 mmHg 49%
    12:00 +20°C° 0 mm 5 mps 763 mmHg 44%
    13:00 +20°C° 0 mm 5 mps 762 mmHg 42%
    14:00 +20°C° 0 mm 5 mps 762 mmHg 41%
    15:00 +21°C° 0 mm 4 mps 761 mmHg 40%
    16:00 +19°C° 0 mm 4 mps 761 mmHg 44%
    17:00 +18°C° 0 mm 4 mps 761 mmHg 48%
    18:00 +16°C° 0 mm 3 mps 761 mmHg 53%
    19:00 +16°C° 0 mm 3 mps 761 mmHg 54%
    20:00 +14°C° 0 mm 3 mps 761 mmHg 56%
    21:00 +13°C° 0 mm 3 mps 761 mmHg 57%
    22:00 +13°C° 0 mm 3 mps 761 mmHg 59%
    23:00 +12°C° 0 mm 3 mps 761 mmHg 61%

    23 October, Wednesday

    Time Temperature Precipitation Wind Pressure Humidity
    00:00 +12°C° 0 mm 3 mps 761 mmHg 63%
    01:00 +12°C° 0 mm 3 mps 761 mmHg 65%
    02:00 +12°C° 0 mm 2 mps 761 mmHg 67%
    03:00 +12°C° 0 mm 2 mps 761 mmHg 69%
    04:00 +12°C° 0 mm 2 mps 761 mmHg 71%
    05:00 +10°C° 0 mm 2 mps 761 mmHg 73%
    06:00 +10°C° 0 mm 2 mps 761 mmHg 74%
    07:00 +12°C° 0 mm 2 mps 761 mmHg 70%
    08:00 +14°C° 0 mm 2 mps 761 mmHg 66%
    09:00 +15°C° 0 mm 2 mps 761 mmHg 62%
    10:00 +16°C° 0 mm 2 mps 761 mmHg 57%
    11:00 +18°C° 0 mm 2 mps 761 mmHg 53%
    12:00 +20°C° 0 mm 2 mps 761 mmHg 48%
    13:00 +20°C° 0 mm 2 mps 761 mmHg 46%
    14:00 +21°C° 0 mm 2 mps 761 mmHg 43%
    15:00 +21°C° 0 mm 2 mps 760 mmHg 41%
    16:00 +20°C° 0 mm 3 mps 761 mmHg 45%
    17:00 +18°C° 0 mm 3 mps 761 mmHg 48%
    18:00 +17°C° 0 mm 3 mps 761 mmHg 52%
    19:00 +16°C° 0 mm 3 mps 761 mmHg 53%
    20:00 +15°C° 0 mm 2 mps 761 mmHg 55%
    21:00 +15°C° 0 mm 2 mps 761 mmHg 56%
    22:00 +15°C° 0 mm 2 mps 761 mmHg 57%
    23:00 +14°C° 0 mm 2 mps 761 mmHg 58%
    Show more